Miscellaneous Local Product
Issued by NWS Hastings, NE

Home | Current Version | Previous Version | Graphics & Text | Print | Product List | Glossary On
Versions: 1 2 3 4 5 6 7 8 9 10 11 12 13 14 15 16 17 18 19 20 21 22 23 24 25 26 27 28 29 30 31 32 33 34 35 36 37 38 39 40 41 42 43 44 45 46 47 48 49 50
239
AXUS43 KGID 040802
MISGRI

GID CWA HOURLY WEATHER ROUNDUP
NATIONAL WEATHER SERVICE HASTINGS NE
300 AM CDT WED MAY 04 2016

NOTE: "FAIR" INDICATES FEW OR NO CLOUDS BELOW 12,000 FEET WITH NO
SIGNIFICANT WEATHER AND/OR OBSTRUCTIONS TO VISIBILITY.

...SOUTH CENTRAL NEBRASKA...

CITY           SKY/WX    TMP DP  RH WIND       PRES   REMARKS
GRAND ISLAND   CLEAR     48  42  80 NW9       30.00S
HASTINGS       CLEAR     51  42  71 NW12      29.99R
KEARNEY        CLEAR     52  39  62 NW8       30.02S
ORD            CLEAR     47  42  83 NW10      30.01S
YORK           CLEAR     50  45  81 NW10      29.98R
AURORA         CLEAR     51  44  77 NW9       29.99R
LEXINGTON      CLEAR     47  41  78 NW8       30.05R
HOLDREGE       CLEAR     50  40  68 W6        30.02R
HEBRON         CLEAR     52  45  77 NW5       29.96R

...NEBRASKA PANHANDLE...

CITY           SKY/WX    TMP DP  RH WIND       PRES   REMARKS
CHADRON        CLEAR     42  39  89 SW7       30.15S
ALLIANCE       CLEAR     39  37  92 W9        30.15F WCI  33
SCOTTSBLUFF    CLEAR     42  38  85 N3        30.18S
SIDNEY         CLEAR     38  34  85 NW9       30.19S WCI  31

...WESTERN AND NORTH CENTRAL NEBRASKA...

CITY           SKY/WX    TMP DP  RH WIND       PRES   REMARKS
VALENTINE      CLEAR     46  39  76 NW6       30.09R
AINSWORTH      CLEAR     47  40  76 NW5       30.08R
ONEILL         PTCLDY    47  37  68 N8        30.04R
BROKEN BOW     CLEAR     49  41  74 N9        30.04R
IMPERIAL       CLEAR     48  37  65 NW8       30.13S
NORTH PLATTE   CLEAR     41  38  89 NW9       30.08S
MCCOOK         CLEAR     46  39  76 W9        30.08S

...EASTERN NEBRASKA...

CITY           SKY/WX    TMP DP  RH WIND       PRES   REMARKS
NORFOLK        CLEAR     51  36  56 NW9       29.98R
SO SIOUX CITY  CLEAR     53  32  44 N15G23    29.93R
TEKAMAH        CLEAR     51  38  60 N13       29.91R
COLUMBUS       PTCLDY    52  36  54 NW7       29.98R
ALBION         CLEAR     46  39  79 NW6       30.00R
OMAHA EPPLEY   CLEAR     51  43  74 N7        29.89S
OFFUTT AFB     CLEAR     58  38  48 NW10      29.88S
MILLARD        CLEAR     59  39  48 N3        29.90S
LINCOLN        CLEAR     56  43  61 NW8       29.95R
NEBRASKA CITY  CLEAR     56  42  59 N10       29.89R
BEATRICE       CLEAR     50  45  83 NW10      29.93R
FALLS CITY     PTCLDY    57  44  62 NW15      29.86R

...NORTHERN KANSAS...

CITY           SKY/WX    TMP DP  RH WIND       PRES   REMARKS
GOODLAND       CLEAR     43  35  73 W12       30.15R
HILL CITY      CLEAR     47  41  80 W9        30.06F
NORTON         SUNNY     48  36  61 W10       30.04F
PHILLIPSBURG   CLEAR     46  43  87 CALM      30.02F
SMITH CENTER   CLEAR     43  41  93 W6        30.01S
BELOIT         CLEAR     48  45  87 W6        29.97F
HAYS           CLEAR     45  36  70 NW6       30.05S
RUSSELL        CLEAR     47  43  86 W9        30.01F
CONCORDIA      CLEAR     53  43  68 W13       29.95F
SALINA         CLEAR     55  45  68 W9        29.98F
TOPEKA         CLEAR     54  45  71 W6        29.89F



USA.gov is the U.S. government's official web portal to all federal, state and local government web resources and services.